Bournemouth, United Kingdom

2:15 PM BST on September 29, 2016 (GMT +0100)
Bournemouth

Weather History for EGHH - October, 2013

Change the Weather History Date:

Wednesday, October 30, 2013

  Actual Average Record
Temperature  
Mean Temperature 45 °F -  
Max Temperature 59 °F 56 °F 64 °F (2014)
Min Temperature 31 °F 42 °F 26 °F (1997)
Degree Days  
Heating Degree Days 20    
Moisture  
Dew Point 44 °F    
Average Humidity 84    
Maximum Humidity 100    
Minimum Humidity 61    
Precipitation  
Precipitation 0.01 in - - ()
Sea Level Pressure  
Sea Level Pressure 30.13 in    
Wind  
Wind Speed 6 mph ()    
Max Wind Speed 18 mph    
Max Gust Speed 28 mph    
Visibility 7.6 miles    
Events Fog , Rain    
Averages and records for this station are not official NWS values.
T = Trace of Precipitation, MM = Missing Value Source: Averaged Metar Reports

Daily Weather History Graph

Daily Weather History Graph

Search for Another Location

Airport or City:

Trip Planner

Search our weather history database for the weather conditions in past years. The results will help you decide how hot, cold, wet, or windy it might be!

Date:

Astronomy

Oct. 30, 2013 Rise Set
Actual Time 6:55 AM GMT 4:45 PM GMT
Civil Twilight 6:21 AM GMT 5:19 PM GMT
Nautical Twilight 5:42 AM GMT 5:58 PM GMT
Astronomical Twilight 5:04 AM GMT 6:36 PM GMT
Moon 2:03 AM GMT (10/30) 2:46 PM GMT (10/30)
Length of Visible Light 10h 58m
Length of Day
9h 49m
Waning Crescent, 18% of the Moon is Illuminated
Oct 30
Waning Crescent
Nov 3
New
Nov 10
First Quarter
Nov 17
Full
Nov 25
Last Quarter

Hourly Weather History & Observations

Time (GMT) Temp. Windchill Dew Point Humidity Pressure Visibility Wind Dir Wind Speed Gust Speed Precip Events Conditions
12:00 AM 38 °F - 37 °F 94% 30.11 in 14 mi NE 1.2 mph - -  
1:20 AM 35.6 °F - 35.6 °F 100% 30.12 in - ENE 1.2 mph - N/A   Clear
1:50 AM 35.6 °F - 33.8 °F 93% 30.12 in - Variable 2.3 mph - N/A   Clear
2:20 AM 35.6 °F - 33.8 °F 93% 30.12 in 6.2 mi NNE 2.3 mph - N/A   Scattered Clouds
4:50 AM 33.8 °F - 33.8 °F 100% 30.12 in - Calm Calm - N/A   Clear
5:20 AM 33.8 °F - 33.8 °F 100% 30.15 in - Calm Calm - N/A   Clear
5:50 AM 32.0 °F 28.7 °F 32.0 °F 100% 30.15 in - ENE 3.5 mph - N/A   Clear
6:00 AM 32 °F - 31 °F 97% 30.16 in 16 mi ENE 3.5 mph - -  
6:20 AM 32.0 °F - 32.0 °F 100% 30.15 in - NNE 2.3 mph - N/A   Clear
6:50 AM 32.0 °F - 32.0 °F 100% 30.15 in 6.2 mi Calm Calm - N/A Fog Shallow Fog
7:20 AM 32.0 °F - 32.0 °F 100% 30.15 in 6.2 mi West 1.2 mph - N/A Fog Shallow Fog
7:50 AM 33.8 °F - 33.8 °F 100% 30.18 in 6.2 mi East 2.3 mph - N/A   Partly Cloudy
8:20 AM 35.6 °F - 35.6 °F 100% 30.18 in 6.2 mi NE 2.3 mph - N/A   Partly Cloudy
8:50 AM 41.0 °F - 41.0 °F 100% 30.18 in 6.2 mi South 1.2 mph - N/A   Partly Cloudy
9:00 AM 41 °F - 40 °F 97% 30.19 in 19 mi South 1.2 mph - -  
9:20 AM 46.4 °F - 46.4 °F 100% 30.18 in 6.2 mi Variable 1.2 mph - N/A   Mostly Cloudy
9:50 AM 50.0 °F - 48.2 °F 94% 30.18 in 6.2 mi West 4.6 mph - N/A   Scattered Clouds
10:20 AM 53.6 °F - 50.0 °F 88% 30.18 in 6.2 mi Variable 3.5 mph - N/A   Scattered Clouds
11:20 AM 57.2 °F - 50.0 °F 77% 30.15 in - SW 5.8 mph - N/A   Clear
11:50 AM 57.2 °F - 48.2 °F 72% 30.15 in 6.2 mi SW 10.4 mph - N/A   Scattered Clouds
12:00 PM 57 °F - 48 °F 62% 30.17 in 19 mi SW 10.4 mph - -   Scattered Clouds
12:20 PM 57.2 °F - 48.2 °F 72% 30.15 in 6.2 mi SW 9.2 mph - N/A   Scattered Clouds
12:50 PM 57.2 °F - 48.2 °F 72% 30.12 in 6.2 mi SW 12.7 mph - N/A   Scattered Clouds
1:20 PM 57.2 °F - 48.2 °F 72% 30.12 in 6.2 mi SW 12.7 mph - N/A   Scattered Clouds
1:50 PM 59.0 °F - 50.0 °F 72% 30.12 in 6.2 mi SW 13.8 mph - N/A   Scattered Clouds
2:20 PM 57.2 °F - 48.2 °F 72% 30.12 in 6.2 mi SW 15.0 mph - N/A   Scattered Clouds
2:50 PM 59.0 °F - 48.2 °F 67% 30.12 in 6.2 mi SW 16.1 mph - N/A   Partly Cloudy
3:00 PM 58 °F - 48 °F 61% 30.13 in 13 mi SW 16.1 mph - -   Scattered Clouds
3:20 PM 57.2 °F - 48.2 °F 72% 30.09 in 6.2 mi SW 15.0 mph - N/A   Partly Cloudy
3:50 PM 57.2 °F - 48.2 °F 72% 30.09 in 6.2 mi SW 11.5 mph - N/A   Partly Cloudy
4:20 PM 55.4 °F - 48.2 °F 77% 30.09 in 6.2 mi SW 13.8 mph - N/A   Scattered Clouds
4:50 PM 55.4 °F - 48.2 °F 77% 30.09 in 6.2 mi SW 11.5 mph - N/A   Scattered Clouds
5:20 PM 57.2 °F - 50.0 °F 77% 30.09 in - SW 10.4 mph - N/A   Clear
5:50 PM 57.2 °F - 50.0 °F 77% 30.09 in 6.2 mi SW 12.7 mph - N/A   Partly Cloudy
6:00 PM 57 °F - 50 °F 70% 30.11 in 14 mi SW 12.7 mph - -   Scattered Clouds
6:20 PM 57.2 °F - 50.0 °F 77% 30.09 in - SW 17.3 mph - N/A   Clear
6:50 PM 57.2 °F - 50.0 °F 77% 30.09 in 6.2 mi SW 15.0 mph - N/A   Partly Cloudy
7:20 PM 57.2 °F - 50.0 °F 77% 30.09 in 6.2 mi SW 13.8 mph - N/A   Mostly Cloudy
7:50 PM 57.2 °F - 50.0 °F 77% 30.09 in 6.2 mi SSW 12.7 mph - N/A   Mostly Cloudy
8:50 PM 57.2 °F - 50.0 °F 77% 30.09 in 4.3 mi SW 18.4 mph - N/A   Mostly Cloudy
9:00 PM 57 °F - 50 °F 69% 30.11 in 4 mi SW 18.4 mph - -   Light Haze
9:20 PM 59.0 °F - 50.0 °F 72% 30.09 in 6.2 mi SSW 17.3 mph - N/A   Scattered Clouds
9:50 PM 55.4 °F - 51.8 °F 88% 30.09 in 3.7 mi SSW 16.1 mph - N/A Rain Light Rain
10:20 PM 55.4 °F - 53.6 °F 94% 30.06 in 3.7 mi SSW 13.8 mph - N/A Rain Light Rain
10:50 PM 55.4 °F - 53.6 °F 94% 30.06 in - SSW 16.1 mph 27.6 mph N/A Rain Rain